FW3691 Weather Reports


time (UTC)temp
C
wind
direction
speed
KPH
gust
KPH
rain 1hr
cm
rain 24hr
cm
rain mn
cm
humidity
%
barometer
mb
20260507081600 7 348 0.0 1.6 0.00 0.00 0.00 83 1019.5
20260507080053 8 348 0.0 1.6 0.00 0.00 0.00 80 1019.4
20260507074555 8 348 0.0 1.6 0.00 0.00 0.00 77 1019.6
20260507073046 9 348 0.0 1.6 0.00 0.00 0.00 74 1019.5
20260507071544 9 348 0.0 3.2 0.00 0.00 0.00 73 1019.6
20260507070045 10 348 0.0 3.2 0.00 0.00 0.00 71 1019.6
20260507064541 10 355 0.0 3.2 0.00 0.00 0.00 69 1019.9
20260507063042 10 355 0.0 3.2 0.00 0.00 0.00 70 1019.9
20260507061539 10 360 0.0 1.6 0.00 0.00 0.00 70 1019.8
20260507060036 10 360 0.0 4.8 0.00 0.00 0.00 70 1019.6
20260507054534 10 348 0.0 4.8 0.00 0.00 0.00 70 1019.5
20260507053033 10 44 0.0 4.8 0.00 0.00 0.00 70 1019.4
20260507051531 10 44 1.6 3.2 0.00 0.00 0.00 69 1019.2
20260507050030 10 44 0.0 4.8 0.00 0.00 0.00 68 1019.2
20260507044527 11 42 1.6 3.2 0.00 0.00 0.00 68 1019.3
20260507043128 11 42 1.6 4.8 0.00 0.00 0.00 68 1019.2
20260507041526 11 25 1.6 4.8 0.00 0.00 0.00 67 1019.2
20260507040026 11 22 1.6 6.4 0.00 0.00 0.00 66 1019.4
20260507034532 11 5 1.6 4.8 0.00 0.00 0.00 66 1019.2
20260507033024 11 5 1.6 4.8 0.00 0.00 0.00 65 1019.1
20260507031523 12 32 1.6 6.4 0.00 0.00 0.00 65 1019.0
20260507030024 12 16 1.6 8.0 0.00 0.00 0.00 64 1018.9
20260507024523 12 12 1.6 9.7 0.00 0.00 0.00 63 1018.8
20260507023022 12 360 0.0 4.8 0.00 0.00 0.00 62 1018.7
20260507021523 12 30 0.0 4.8 0.00 0.00 0.00 61 1018.7
20260507020041 12 35 0.0 4.8 0.00 0.00 0.00 63 1018.4
20260507014521 12 35 1.6 4.8 0.00 0.00 0.00 62 1018.2
20260507013023 13 35 0.0 3.2 0.00 0.00 0.00 61 1018.1
20260507011534 13 36 1.6 6.4 0.00 0.00 0.00 58 1017.8
20260507010023 14 55 3.2 9.7 0.00 0.00 0.00 55 1017.7
20260507004519 15 55 3.2 9.7 0.00 0.00 0.00 55 1017.6
20260507003019 15 42 4.8 9.7 0.00 0.00 0.00 52 1017.4
20260507001544 16 49 6.4 14.5 0.00 0.00 0.00 51 1017.3
20260507000017 16 24 8.0 14.5 0.00 0.00 0.00 49 1017.2
20260506234516 16 53 6.4 19.3 0.00 0.00 0.00 50 1017.2
20260506233018 16 60 4.8 14.5 0.00 0.00 0.00 51 1017.1
20260506231517 17 63 6.4 14.5 0.00 0.00 0.00 53 1017.1
20260506230014 17 62 8.0 17.7 0.00 0.00 0.00 51 1016.8
20260506224516 16 146 9.7 20.9 0.00 0.00 0.00 51 1016.8
20260506223013 17 51 6.4 20.9 0.00 0.00 0.00 52 1016.4
20260506221512 17 40 11.3 22.5 0.00 0.00 0.00 52 1016.4
20260506220011 16 48 8.0 17.7 0.00 0.00 0.00 54 1016.4
20260506214509 16 17 8.0 20.9 0.00 0.00 0.00 54 1016.3
20260506213008 16 41 8.0 20.9 0.00 0.00 0.00 53 1016.4
20260506211507 16 38 9.7 20.9 0.00 0.00 0.00 52 1016.5
20260506210008 16 18 8.0 24.1 0.00 0.00 0.00 55 1016.5
20260506204503 16 19 8.0 16.1 0.00 0.00 0.00 56 1016.7
20260506203003 16 46 8.0 19.3 0.00 0.00 0.00 57 1017.0
20260506201503 16 355 8.0 20.9 0.00 0.00 0.00 58 1017.1
20260506200001 16 44 8.0 17.7 0.00 0.00 0.00 57 1017.2
20260506194605 17 28 8.0 19.3 0.00 0.00 0.00 55 1017.2
20260506193106 17 61 8.0 16.1 0.00 0.00 0.00 58 1017.1
20260506191556 16 38 9.7 22.5 0.00 0.00 0.00 58 1017.4
20260506190056 16 32 11.3 19.3 0.00 0.00 0.00 57 1017.7
20260506184554 16 21 8.0 16.1 0.00 0.00 0.00 58 1017.8
20260506183103 16 67 9.7 20.9 0.00 0.00 0.00 58 1017.9
20260506181557 16 10 9.7 19.3 0.00 0.00 0.00 59 1018.0
20260506180054 16 67 8.0 20.9 0.00 0.00 0.00 62 1018.1
20260506174550 16 74 6.4 17.7 0.00 0.00 0.00 57 1018.4
20260506173057 16 31 8.0 20.9 0.00 0.00 0.00 57 1018.6
20260506171546 15 76 8.0 24.1 0.00 0.00 0.00 56 1019.0
20260506170053 15 33 6.4 17.7 0.00 0.00 0.00 60 1019.5
20260506164555 15 51 12.9 19.3 0.00 0.00 0.00 59 1019.5
20260506163046 15 5 6.4 17.7 0.00 0.00 0.00 64 1019.1
20260506161543 15 38 9.7 19.3 0.00 0.00 0.00 60 1019.1
20260506160038 15 38 9.7 22.5 0.00 0.00 0.00 62 1018.8
20260506154533 13 46 4.8 17.7 0.00 0.00 0.00 64 1018.5
20260506153029 13 60 6.4 22.5 0.00 0.00 0.00 65 1018.2
20260506151539 12 53 4.8 24.1 0.00 0.00 0.00 68 1017.6
20260506150042 12 37 12.9 24.1 0.00 0.00 0.00 65 1017.6
20260506144531 11 37 6.4 17.7 0.00 0.00 0.00 69 1017.6
20260506143031 11 114 11.3 24.1 0.00 0.00 0.00 70 1017.6
20260506141530 10 57 14.5 25.7 0.00 0.00 0.00 72 1017.5
20260506140022 10 79 11.3 20.9 0.00 0.00 0.00 74 1017.7
20260506134521 10 78 16.1 27.4 0.00 0.00 0.00 76 1017.5
20260506133019 9 44 11.3 24.1 0.00 0.00 0.00 77 1017.6
20260506131517 9 51 6.4 20.9 0.00 0.00 0.00 79 1017.9
20260506130014 9 57 9.7 22.5 0.00 0.00 0.00 79 1017.3
20260506124512 8 53 8.0 22.5 0.00 0.00 0.00 80 1017.5
20260506123013 8 30 9.7 25.7 0.00 0.00 0.00 80 1017.5
20260506121511 8 34 9.7 24.1 0.00 0.00 0.00 79 1016.9
20260506120011 8 44 6.4 24.1 0.00 0.00 0.00 78 1016.8
20260506114501 8 36 8.0 17.7 0.00 0.00 0.00 78 1016.7
20260506113100 9 19 8.0 19.3 0.00 0.00 0.00 78 1016.7
20260506111557 9 348 6.4 19.3 0.00 0.00 0.00 77 1016.6
20260506110107 9 32 8.0 20.9 0.00 0.00 0.00 76 1016.4
20260506104606 9 11 8.0 19.3 0.00 0.00 0.00 76 1016.1
20260506103049 9 38 9.7 16.1 0.00 0.00 0.00 76 1015.6
20260506101547 9 38 6.4 17.7 0.00 0.00 0.00 77 1015.9
20260506100053 9 38 4.8 17.7 0.00 0.00 0.00 77 1015.5
20260506094544 9 49 4.8 17.7 0.00 0.00 0.00 76 1015.5
20260506093039 9 17 8.0 19.3 0.00 0.00 0.00 76 1014.8
20260506091537 9 25 8.0 17.7 0.00 0.00 0.00 76 1014.5
20260506090034 9 17 8.0 16.1 0.00 0.00 0.00 77 1013.8
20260506084607 9 15 8.0 14.5 0.00 0.00 0.00 77 1013.5
20260506083031 9 10 11.3 20.9 0.00 0.00 0.00 76 1013.5